Location: Pasarilla del Rebollar
(40.6790°N, 5.0062°W)
Time: 11:51:59
(UTC+00:00)

Cosmos 2084 Rocket - Pass Details

Date: 22 April 2026
Orbit: 530 x 580 km, 62.8° (Epoch: 21 May)

Event Time Altitude Azimuth Distance (km) Brightness Sun altitude
Rises 03:35:54 0° 324° (NW) 2,764 6.9 -20.2°
Reaches altitude 10° 03:38:07 10° 323° (NW) 1,872 6.0 -19.9°
Maximum altitude 03:42:21 83° 235° (SW) 582 3.2 -19.2°
Drops below altitude 10° 03:46:36 10° 149° (SSE) 1,881 6.0 -18.6°
Sets 03:48:51 0° 148° (SSE) 2,779 6.9 -18.2°
